CAPE
683 1964 1520 1724 1941 2015 2056 2016 1913 1955 1980 2001 2301 2284 2428 2397 2316 2317 2407 2390 2318 2281 2255 2154 1946 1694 1422 1387 1440 1511 1397 1377 1318 1292 1494 1525 1288 1381 1485 1589 1786 1723 1618 1555 1515 1493 1537 1640 1854 1765 1614 1446 1477 1320 946 829 879 1040 1462 1342 1171 1253 1264 1336 1275 1100 893 830 792 696 688 648 501 470 344 302 220 148 127 146 190 21 0 29 94
1233 1818 1648 1382 1907 2047 2016 2009 1989 1960 1991 2060 2099 2029 2203 2414 2368 2286 2238 2257 2307 2254 2159 1914 1608 1438 1454 1294 1448 1413 1342 1309 1243 1439 1441 1405 1318 1244 1454 1585 1561 1665 1640 1670 1602 1622 1455 1486 1489 1451 1421 1313 1265 952 1012 1025 848 1043 1310 1299 1221 1145 1226 1134 855 709 1000 826 581 468 662 637 496 242 137 123 142 81 93 120 123 17 0 0 0
1529 1440 1791 1674 1979 1959 1972 2011 1998 2032 2107 2047 2041 2079 2327 2050 1822 1967 1928 1828 1860 2156 2000 1681 1472 1200 1398 1488 1450 1391 1346 1289 1215 1351 1455 1353 1165 1224 1260 1503 1630 1632 1590 1575 1519 1397 1252 1350 1374 1358 1340 1264 1155 995 1040 1002 968 998 1079 1087 1331 1142 1046 954 853 674 730 646 641 529 491 479 83 56 82 79 129 140 291 540 315 25 0 0 0
1413 1834 1750 1937 1907 1906 2043 1986 1981 2062 2059 2017 1969 1883 1766 1764 1756 1691 1746 1826 1968 1939 1726 1390 1244 1315 1437 1396 1374 1369 1344 1279 1168 1094 1195 1412 1211 1128 1072 1137 1236 1341 1410 1356 1357 1338 1189 1306 1260 1250 1298 1215 1153 1046 1053 1016 1018 925 940 1054 1285 1151 970 943 1168 979 560 682 722 832 558 436 425 420 610 600 573 524 438 406 388 44 0 0 0
1446 1664 1648 1505 1657 1893 1861 1957 1963 1989 2014 1941 1887 1912 1919 1982 1902 1863 1916 1984 1938 1795 1605 1450 1303 1394 1437 1343 1329 1362 1319 1320 1320 1235 1277 1527 1273 1194 1263 1232 1120 890 1264 1178 1266 1190 1355 1410 1346 1270 1236 1204 1149 1090 1107 1136 1128 972 972 966 1131 1002 879 869 1014 993 1017 901 1012 874 741 512 469 632 558 451 333 310 298 281 277 101 0 1 3
1212 1673 1541 1200 1290 1694 1808 1881 1892 1928 1958 1893 1903 1977 1983 2103 2056 2048 2005 1942 1802 1622 1475 1506 1355 1483 1384 1334 1322 1366 1356 1353 1413 1413 1685 1698 1700 1535 1309 1294 1188 1083 1039 1041 1156 1361 1388 1231 1193 1207 1287 1300 1236 1107 1140 1130 1090 1031 1034 1168 1014 891 875 910 897 825 842 845 569 872 832 776 484 492 430 396 281 225 501 408 286 225 30 1 1
1536 1652 1690 1432 1400 1597 1795 1797 1878 1805 1828 1814 1869 1956 2013 2052 2041 1993 1940 1842 1753 1664 1563 1520 1480 1412 1408 1422 1498 1429 1383 1321 1295 1609 1840 1816 1767 1670 1362 1314 1190 1186 1269 1184 1063 1204 1281 1306 1182 1196 1336 1298 1220 1214 1115 1054 993 1097 1163 1113 1039 970 900 829 783 770 824 1167 1080 903 803 734 603 433 650 801 706 542 412 382 424 335 23 0 2
1736 1621 1536 1622 1560 1965 1895 1819 1854 1878 1853 1793 1806 1812 1862 1925 1912 1870 1893 1806 1735 1617 1523 1481 1393 1340 1505 1606 1602 1515 1398 1339 1361 1636 1854 1922 1950 1864 1650 1504 1460 1505 1521 1438 1356 1331 1345 1364 1322 1382 1388 1420 1312 1141 997 985 1091 1000 1055 1157 1046 973 874 854 697 662 615 1038 1097 1210 1124 1072 825 418 597 721 533 328 291 293 286 151 57 96 3
1661 1530 1540 1782 1704 1668 1951 1852 1770 1856 1823 1875 1818 1832 1820 1852 1784 1733 1732 1715 1670 1553 1502 1437 1384 1520 1701 1793 1748 1608 1522 1498 1591 1586 1896 2000 1974 1845 1619 1701 1623 1366 1496 1542 1451 1625 1426 1422 1513 1509 1522 1413 1206 1030 965 1062 1201 1216 1474 1305 1017 927 869 792 674 773 1473 1152 1176 1209 1186 1071 1009 678 774 732 203 167 464 359 516 143 29 24 0
1662 1762 1566 1903 1822 2060 2036 1837 1758 1865 1903 1769 1782 1824 1757 1723 1675 1675 1631 1575 1625 1685 1609 1604 1731 1889 1733 1523 1529 1556 1389 1431 1556 1765 2013 1880 1664 1713 1613 1334 1254 1502 1705 2028 1679 1572 1476 1509 1599 1653 1542 1437 1285 1194 1244 1503 1560 1613 1539 1440 1320 968 801 684 741 1055 1193 1199 1158 1254 954 1864 968 700 482 205 247 327 455 524 583 244 36 0 2
1836 1832 1783 2028 1875 1984 1939 1889 1879 1871 1920 1880 1883 1810 1774 1815 1758 1698 1671 1606 1851 1966 2111 2087 1968 1824 1701 1372 1388 1656 1422 1372 1608 1806 1836 1898 1777 1602 1534 1557 1582 1574 1732 1871 1717 1579 1476 1652 1677 1612 1613 1509 1410 1318 1391 1364 1438 1385 1452 1380 1332 1331 1381 1179 874 1308 1080 954 1113 526 309 866 947 702 482 442 491 361 640 603 556 356 98 40 7
1574 1698 2048 1439 2064 1947 1902 1960 1995 1933 1766 1769 1794 1870 1916 2004 1865 1830 1633 1906 2086 2119 2077 2173 1988 1802 1545 1445 1663 1743 1530 1120 1207 936 1945 2025 2025 1886 1850 1780 1649 1522 1497 1557 1670 1612 1723 1671 1622 1553 1481 1317 1293 1464 1443 1399 1339 1316 1256 1294 1405 1224 1288 1580 1576 1245 1422 1269 1295 1290 1137 1056 848 528 635 609 434 498 486 422 425 382 88 48 14
1949 1887 2017 1689 2195 2007 1922 1818 1936 1941 1907 1904 1898 1933 2168 2138 2068 1797 1742 2042 2097 2113 2055 2106 2031 1889 1796 1723 1774 1672 1253 1093 1158 1025 1683 2044 2078 2042 1964 1824 1790 1781 1646 1449 1447 1637 1568 1570 1459 1380 1319 1317 1402 1412 1361 1243 1191 1154 1210 1270 1254 1348 950 1456 1302 1277 1254 1340 1138 1017 796 1065 740 486 497 455 362 420 315 442 503 393 76 32 59
2162 1966 1484 1959 1214 1985 1837 1856 1878 2040 2115 2081 2074 2118 2174 2223 2164 2230 2150 2089 2050 2070 2136 2179 2023 1991 1925 1756 1641 1645 1271 1199 1092 1205 1434 1819 1932 1895 1837 1831 1658 1557 1587 1528 1420 1402 1443 1416 1266 1216 1344 1325 1192 1084 1083 1077 1164 1138 1212 1471 1460 1190 1124 1705 1164 1270 1318 1171 1242 1096 1180 1156 886 581 529 591 544 493 574 539 504 461 246 40 13
2140 1723 1995 1394 1826 1897 2114 2001 1988 2034 2036 2100 2137 2181 2204 2138 2142 2138 2081 2086 2161 2203 2239 2138 2018 2032 1956 1758 1675 1403 1272 1234 1263 1499 1681 1654 1873 1902 1720 1737 1717 1689 1657 1639 1568 1536 1351 1190 1130 983 996 962 951 912 828 1064 1074 1272 1421 1597 1620 1122 1189 1336 1104 1261 1282 990 1126 1100 1147 782 676 828 557 634 753 910 768 654 541 379 265 174 68
2145 2108 1461 2176 2042 1941 1858 1990 2029 2081 2130 2146 2154 2157 2169 2143 2117 2123 2084 2132 2182 2239 2175 2124 2125 2160 2059 1990 1964 1357 1376 1327 1355 1679 1674 1696 1757 1678 1661 1696 1783 1834 1756 1677 1660 1550 1261 1080 996 856 804 886 950 968 982 1133 1351 1490 1380 1645 1575 1123 1427 1456 1324 1212 1237 1224 1020 1047 989 660 876 735 725 678 928 669 605 507 295 242 276 35 22
1306 1677 1944 1852 2138 1823 1822 1665 1846 1879 2056 2092 1957 1992 2080 2085 2088 2060 2102 2141 2226 2272 2190 2172 1960 2019 2012 1970 1950 1770 1699 1691 1863 1766 1744 1806 1649 1490 1532 1537 1685 1772 1794 1673 1465 1116 978 889 878 895 920 997 1058 1087 1072 1052 1188 1293 1451 1430 1640 1191 1004 1268 1004 1195 1083 998 988 1011 1041 973 1182 1545 720 559 400 604 495 432 388 468 463 113 18
1565 1537 1922 1948 1761 1757 1298 1270 2019 1640 2061 2089 2134 2009 2016 2021 2042 2007 2063 2098 2166 2031 1936 1952 2030 1886 1924 1901 1820 1642 1559 1725 1978 1735 1862 2056 1840 1514 1499 1400 1656 1773 1718 1684 1076 881 869 981 1031 1099 1161 1112 1076 1013 980 940 1057 1129 1118 1202 1603 1348 1271 1098 1199 1172 1109 922 1058 932 1110 1356 1144 1101 734 657 589 430 435 304 529 382 286 334 59
1486 1332 1321 1239 1416 1777 1899 1521 1053 2226 2288 2458 2286 1531 1783 2060 1994 1975 2011 1947 1816 1661 1735 1835 1883 1842 1877 1910 1835 1797 1904 1925 1998 1986 2099 2027 1939 1633 1470 1382 1727 1690 1620 1502 1177 1275 1255 1196 1165 1201 1152 1196 1068 967 916 917 943 906 1003 1413 1444 1528 1223 1353 1374 1130 1088 1169 948 1033 1181 1362 1424 1153 717 587 494 466 345 391 357 398 433 347 218
1312 1663 1705 941 1005 1653 1446 1906 2139 2193 2159 1446 1402 1637 1704 1945 1878 1847 1593 1760 1499 1519 1470 1588 1833 1799 1739 1826 2028 2112 1838 2070 1970 2080 2045 2038 1886 1508 1808 1703 1703 1697 1548 1466 1472 1513 1481 1365 1246 1102 1210 1052 868 780 750 696 599 688 825 1294 1722 1592 1761 1677 1573 1140 1133 776 679 948 1029 1458 1321 854 698 632 568 504 465 437 361 424 426 478 356
1412 1393 1189 808 790 907 1120 1530 1573 1075 1358 1920 1085 2001 1595 1674 1744 1427 1708 1447 1489 1493 1491 1539 1697 1875 1995 1832 1788 2022 2260 2232 1632 1542 1928 1844 1891 1862 1722 1655 1745 1719 1594 1468 1491 1468 1339 1222 1237 1314 1056 892 805 630 556 542 479 488 611 1136 1354 1910 1542 1471 1478 1254 1048 956 1121 1101 1152 1186 1166 911 864 710 437 494 449 417 464 439 453 480 275
1056 1222 1333 1250 1393 1520 1158 1394 1158 1369 1736 1768 1774 1476 1346 1481 1191 1861 1163 1602 1617 1589 1824 1682 1583 2300 1872 2068 2278 2201 1949 1595 1893 1519 2079 1713 1940 1846 1728 1683 1747 1635 1632 1549 1661 1504 1464 1568 1390 1210 931 956 768 1216 623 366 101 439 584 698 1682 1398 1479 1409 1413 1236 1180 1171 1086 940 1149 1251 977 1007 803 776 601 468 386 463 382 430 367 436 256
1076 1348 1478 1373 1558 1567 2128 2188 1992 1818 1724 1477 1105 961 1040 1150 1456 1097 1272 1405 1526 1713 2127 1903 2341 2301 2251 2208 2332 1870 1960 1986 2004 1791 1982 1358 1802 1775 1695 1739 1602 1663 1688 1658 1668 1647 1510 1163 934 891 946 619 1223 706 583 569 509 474 629 1153 1502 1344 1404 1438 1235 1348 1065 1332 1332 1175 1126 1320 1054 1031 912 765 573 405 285 570 527 449 464 427 314
1271 1344 1240 1412 1511 1776 1967 1328 1853 1727 1458 1510 900 1446 899 909 716 1116 1149 1196 1701 2024 2139 2218 2210 2374 2311 2462 2373 2216 2131 2169 1493 1488 1443 1844 1810 1898 1681 1697 1636 1709 1780 1638 1673 1634 1272 1033 999 843 955 1033 795 637 581 521 577 659 814 1074 1418 1540 1524 1546 1221 1240 1350 1049 953 1300 1107 1384 1352 921 854 787 643 517 393 640 474 426 425 321 284
1295 1384 1280 1039 1343 1307 1618 1660 1786 1755 1615 1630 1070 1106 1043 952 1027 1145 1306 2028 2179 2132 2260 2476 2562 2630 2661 2632 2320 2264 1852 1758 1876 1360 1219 1631 995 1686 1726 1728 1549 1533 1814 1879 1180 1159 1341 962 850 1054 1035 723 635 548 496 471 531 513 600 879 1108 1350 1714 1306 1338 1420 1348 1311 1301 1283 1088 1477 1390 1513 836 729 685 580 514 435 432 304 309 232 284
1080 788 486 756 726 1228 1599 1633 1748 1601 1252 1795 2125 1750 1826 1498 1118 2034 1893 1922 2184 2227 2211 2203 2323 2484 2491 2388 2182 2194 1765 1719 1831 1760 1830 1720 1556 1286 1312 1158 1005 1301 1219 1472 1436 1260 1119 972 859 807 849 808 720 544 598 473 418 506 471 609 790 1149 1650 1455 1446 1302 1423 1494 1358 1323 1438 1422 1524 1519 695 792 694 606 427 342 270 277 284 293 314
576 616 181 707 1353 1520 1740 1547 1489 1678 1705 2049 1423 1432 1924 1888 1940 1994 2052 1989 2026 2087 2143 2165 2190 2469 2497 2365 2212 1902 1730 1131 1596 1951 2070 1882 1497 1336 1371 1423 1419 1220 1393 1190 1215 728 611 651 536 668 702 785 440 458 474 446 455 347 395 395 532 782 1433 1560 1463 1357 1346 1589 1630 1380 1460 1571 1524 1559 1041 763 646 628 438 428 265 259 189 185 402
654 659 560 1142 1554 1786 1373 1377 1675 2109 2250 2088 2098 1967 1852 1705 1682 1456 1831 1656 1916 1948 2000 2184 2376 2385 2447 2310 2026 1654 1438 1353 1391 1673 1869 1926 1640 1480 1540 1726 1547 1497 1407 1288 743 990 1110 1533 1343 708 485 496 428 400 541 472 512 399 364 340 419 632 882 1316 1535 1364 1358 1643 1548 1343 1415 1688 1502 1647 1656 669 663 593 511 458 374 206 120 103 314
846 798 623 1108 688 786 967 1664 1763 2019 1614 1572 1638 1907 1922 1936 1835 1983 2044 1714 2072 2233 2289 2244 2254 2220 2138 2002 2016 1951 1194 1370 1448 1663 2111 1978 1888 1858 1858 1682 1688 1352 1382 1454 1258 905 1836 1840 1540 974 430 418 500 498 523 299 432 406 353 316 343 472 817 1381 1576 1751 1626 1792 2031 1671 1511 1672 1595 1436 1669 818 634 520 335 440 459 366 138 162 195
1166 1079 654 708 636 1307 1486 1736 1877 1589 1222 1185 1221 1943 2056 2111 2081 2068 2054 2005 2196 2214 2177 2220 2235 2070 1874 1927 1819 1927 1911 974 1219 1820 1772 1988 1995 1862 1688 1642 1674 1564 1587 1450 1438 1446 1870 1936 1197 852 603 496 626 710 630 582 253 414 360 358 310 455 772 1291 1514 1161 1200 1764 2006 1698 1676 1605 1580 1272 1254 1597 719 573 369 494 446 424 252 134 126
1382 1214 758 855 881 1579 1692 1656 1681 1876 1736 1471 1842 1872 1991 1977 1836 1888 1921 1982 2143 2138 2081 2106 2132 1988 1790 2028 2026 1849 997 1070 1396 1604 1566 1524 1862 1737 1460 1451 1542 1720 1642 1409 1572 1637 1721 1805 1583 1128 717 849 942 796 406 702 445 292 246 349 507 595 722 1021 1238 1247 1169 1340 2095 2185 1660 1567 1586 1340 1316 946 1130 1105 630 444 421 400 385 272 122
1298 1190 953 878 1242 1805 1700 1597 1889 1859 1972 1638 1674 1713 1701 1760 1737 1808 2134 2145 2171 2103 2019 2134 2292 2268 2094 1991 1872 1536 871 1050 1186 1283 1573 1651 1588 1468 1549 1511 1453 1548 1625 1621 1654 1634 1440 1431 1800 1811 1359 890 744 711 631 772 650 350 272 260 374 477 518 674 854 1131 1519 1655 1993 1771 1841 1522 1554 1296 1420 1028 824 854 1229 378 272 417 422 382 312
1404 1189 1344 1422 1441 1927 1781 1573 1630 1344 1415 1308 1442 1521 1638 1580 1668 1996 2157 2179 1964 2082 2129 2094 2166 2052 2069 1910 1670 1173 1107 993 1229 1544 1431 1519 1630 1744 1706 1540 1630 1503 1400 1506 1476 1522 1558 1453 1781 1726 1585 919 661 856 692 655 665 462 316 304 244 231 208 504 668 942 1388 1730 1656 1431 1494 1796 1289 1366 1171 1329 840 978 875 603 382 291 408 372 253
1360 1328 1389 1500 1428 1854 1652 1543 1539 1354 1411 1432 1408 1487 1672 1738 1838 2104 2158 2145 2118 2030 2035 1990 1946 1826 1790 1847 1754 1188 1074 1543 1555 1406 1426 1563 1588 1548 1557 1517 1472 1500 1419 1436 1330 1489 961 1170 1196 1731 1479 1310 1136 1016 865 849 994 856 646 625 565 648 336 183 585 759 1548 1682 1452 1574 1307 1441 1879 1602 1328 1581 1212 900 656 758 486 441 341 256 235
1363 1207 999 1234 1482 2036 1899 1931 1742 1689 1485 1487 1443 1503 1828 1841 1923 2062 2157 2106 1937 1876 1863 1966 1790 1792 1884 1782 1877 1675 1550 1410 1389 1518 1410 1453 1323 1459 1503 1546 1491 1384 964 978 1196 1076 763 705 660 685 930 1555 1494 1356 1327 1328 1282 1028 1163 997 795 738 793 350 228 404 596 1215 2353 1914 1646 1540 1251 1271 1237 1242 1723 1068 852 862 653 491 490 364 245
1348 1182 1106 1563 1751 1726 1766 2151 2149 1584 1871 1704 1726 1745 1998 2115 2244 2076 2164 2146 2042 1860 1965 1969 1961 1954 1905 1987 1919 1779 1649 1504 1456 1352 1203 1028 1000 1115 1473 1506 1427 1438 1311 876 943 632 1113 974 834 1091 731 820 1130 1393 1285 1312 1242 1246 1261 1363 1265 997 1018 957 788 437 604 769 911 1402 1772 1896 2071 1673 1757 1319 1250 1001 684 934 941 1125 609 438 349
1376 1397 1434 1591 1925 2152 1811 1981 2330 2386 2157 2204 2131 2132 2159 2207 2260 2283 2280 2492 2273 2147 2116 2157 2084 2035 2120 1945 1961 1796 1649 1549 1326 1497 1036 842 821 830 992 1355 1440 1367 1210 738 620 1068 1168 1141 829 980 1126 855 967 1324 1274 1317 1333 1344 1269 1237 1235 1170 1130 1122 1266 930 963 1184 1383 1721 1723 1737 1821 1523 1767 946 1087 1332 1152 826 1252 757 1057 839 527
1484 1568 1700 1846 1791 1440 1590 2381 2335 2693 2453 2189 2016 1993 2158 2255 2368 2193 1827 1745 1678 1641 1686 1770 2008 2260 2095 1908 1914 1832 1619 1516 1503 1402 1198 1094 1111 1074 800 1262 1279 1380 1294 1442 1200 1176 1176 1284 1074 1416 1552 1727 1690 1468 1384 1355 1205 1220 1293 1210 1255 1291 1384 1346 1397 1287 921 1070 1071 1621 1637 1907 2058 1585 1498 1094 1037 963 901 949 754 706 884 879 945
1469 1830 2140 1333 1988 1439 1703 1594 1854 2005 1604 1997 2167 2164 2047 2194 1996 1678 1695 1647 1677 1654 1627 1560 1466 1389 1269 1256 1223 1814 1669 1542 1486 1464 1464 1120 758 931 770 1157 1298 1221 1457 1281 1181 1307 1286 1200 1078 1400 1646 1631 1599 1645 1753 1540 1387 1135 1174 1232 1146 1257 1233 1267 1088 1120 1476 1524 1437 1237 1271 1764 1597 1924 1311 1066 1321 943 926 840 774 1159 968 528 916
1737 1936 2312 2382 2374 1786 1461 1658 1467 1498 1756 1885 1778 1717 1763 1725 1390 1483 1342 1312 1320 1468 1500 1400 988 906 1029 966 968 1043 961 1244 1575 1552 1347 1152 753 834 1252 1209 1186 1152 1116 928 1249 1349 1272 1127 1119 1325 1697 1458 1405 1529 1435 1479 1453 1434 1245 1266 1102 1129 1201 978 1024 1171 1346 1780 1764 1665 1694 1759 2024 2041 1856 1328 1183 1009 1008 900 926 619 817 581 568
1875 1883 1964 2234 1974 1898 1866 1682 1710 1706 1890 1858 1817 1865 1666 1385 1358 1259 1293 1399 1162 1364 1192 975 781 775 739 600 802 648 912 1048 1114 1600 1676 1125 1471 1556 1364 1252 1102 1149 1251 1245 1308 1420 1468 1452 1210 1424 1793 1511 1384 1125 960 1278 1331 1332 1372 1329 1387 1328 1277 1037 938 1066 1060 1048 1324 1347 1554 1660 1920 1957 1273 801 826 1072 950 1015 962 729 1061 907 558
1840 2020 2260 1599 2216 2168 1803 1886 1445 1576 2252 2115 2063 1636 1426 1378 1424 1314 1201 1120 1059 952 906 884 773 654 807 776 672 622 829 857 789 723 579 549 646 862 888 780 720 843 750 762 781 994 996 1249 1274 1544 1646 1467 1371 1436 1202 1531 1306 1349 1297 1295 1354 1287 1287 1161 938 945 970 857 802 1008 1502 1631 1448 1566 1181 1093 862 885 820 1180 1084 738 843 1059 1327
1797 1832 2413 2316 1794 1652 1641 1633 1666 2049 2310 2120 2054 1604 1577 1572 1372 1485 1232 1026 1060 925 784 638 454 273 564 597 653 593 348 507 652 504 457 292 279 340 252 298 322 262 401 476 666 665 654 683 1170 1285 1683 1647 1368 1501 1600 1521 1276 1274 1236 1161 1148 1054 1117 1114 1129 979 919 965 980 940 1239 1117 1093 1157 722 888 1054 874 922 1133 729 962 1136 1200 1402
1784 1856 2276 1666 1400 1048 1121 1372 1686 2267 2178 2191 1710 1783 1921 1559 1531 1555 1449 1051 1086 1026 809 647 332 137 104 220 236 422 427 231 178 42 18 154 184 196 174 207 248 377 275 206 367 345 638 694 697 888 1145 1462 1402 1404 1480 1595 1416 1218 1199 1037 1023 1048 891 574 708 988 965 1169 861 963 888 671 325 863 1117 1026 1020 1078 929 1173 1449 1366 971 778 734
1721 1826 1651 1160 1226 1258 627 1015 1667 1966 2297 2086 1857 1783 1976 1966 1932 1838 1575 1277 892 685 604 436 206 40 20 136 176 355 374 268 230 163 74 135 117 145 136 163 290 314 277 303 340 322 239 357 567 717 728 888 1241 1507 1480 1590 1646 1571 1222 961 955 1008 857 476 518 682 1128 866 703 787 872 709 577 934 840 942 1184 1250 1250 1196 1397 1432 1226 1201 1209
1701 1802 1596 1448 1482 1526 1070 1016 1521 1864 2078 1889 1727 1610 1560 1369 1226 1053 973 898 842 618 498 359 90 61 37 121 145 310 229 304 144 130 28 89 89 140 169 62 382 155 98 175 198 263 233 204 405 530 604 820 919 1509 1317 1169 1216 1493 1489 1346 919 1051 899 1091 784 412 970 732 925 722 740 929 911 632 1059 1184 964 970 934 1074 1060 873 1010 1261 1438
1515 1866 1807 1820 1826 1765 1489 2058 1324 1683 1754 1691 1715 1798 1705 1535 1293 1025 850 715 670 837 734 446 206 42 104 278 170 362 251 253 117 76 39 9 39 29 69 71 28 24 21 72 160 152 98 295 336 410 446 566 760 802 1033 950 999 1127 1377 1324 1226 1290 1374 1239 1070 704 401 931 573 774 930 917 602 650 739 515 937 1155 1060 816 745 805 800 860 928
1421 1713 1682 1820 1935 2149 2176 1529 1492 1646 1820 1954 1940 2028 1802 1772 1446 1045 813 719 673 807 613 469 228 100 112 89 96 101 79 40 14 16 8 0 0 0 0 0 0 0 0 6 9 8 29 246 603 574 528 1032 1145 1259 1359 1129 1002 1276 1161 1233 1119 1241 847 1369 1182 740 950 856 672 395 680 609 492 369 275 359 488 775 847 830 694 792 706 853 604
1308 1398 1746 1781 2184 2673 2148 1713 1803 2092 2300 2417 2179 2159 1834 1870 1612 1205 860 667 632 620 376 187 168 146 136 51 10 2 29 57 15 11 0 0 0 0 0 0 0 0 0 0 0 0 16 181 110 182 247 263 395 582 863 1109 1145 1274 1224 732 850 1178 957 907 1173 1054 979 445 403 499 319 213 298 256 91 267 330 312 254 187 202 486 448 500 736
1511 1364 1559 1807 1463 1642 2142 1718 1980 2214 2365 2468 2262 2266 2320 2005 1624 1280 1144 832 585 471 289 222 188 161 135 106 25 2 0 0 5 0 0 0 0 0 0 0 0 0 0 0 1 27 54 58 113 136 150 109 156 289 389 631 1045 1204 1058 849 940 1011 1066 994 1178 1176 1389 824 468 455 706 704 370 188 68 179 22 0 0 0 0 31 313 464 301
1514 1733 1586 1324 471 710 1451 1714 1923 1993 2107 2254 2250 2210 2209 1860 1590 1531 1033 959 783 545 371 271 116 136 75 63 21 0 0 0 0 0 0 0 0 0 0 0 0 0 0 0 0 0 2 2 4 10 14 21 89 263 255 385 359 281 354 347 314 515 430 540 929 1160 1015 1005 775 767 579 318 205 118 2 0 0 0 58 0 0 0 0 4 8
Wind_Speed
31 36 34 37 35 34 34 33 34 34 34 35 34 35 36 37 37 38 38 36 34 32 32 32 34 34 35 34 33 31 29 28 26 24 21 23 25 25 25 25 26 26 25 22 20 18 18 19 18 17 16 16 15 14 12 11 11 14 16 16 16 16 15 15 13 13 15 16 16 16 15 14 14 14 15 17 16 15 15 15 12 nan nan nan nan
36 37 36 37 36 35 35 35 33 34 35 34 35 36 38 38 37 38 37 36 35 33 32 32 33 34 35 35 33 32 30 28 26 23 21 22 24 25 26 25 25 25 25 23 20 19 18 18 18 17 16 15 15 14 12 12 12 14 17 17 16 15 15 14 13 12 15 15 16 16 16 14 14 13 15 17 16 nan nan 18 19 nan nan nan nan
38 38 37 38 37 35 36 36 35 34 34 36 36 38 37 39 39 39 38 38 37 34 32 32 32 33 35 35 34 33 31 28 26 23 21 21 23 24 24 26 25 25 24 23 20 18 18 17 17 17 16 16 15 14 12 12 13 14 16 17 15 13 14 14 13 13 13 14 16 16 16 14 nan nan nan nan 17 17 18 20 19 nan nan nan nan
40 38 37 39 38 36 37 37 36 36 36 37 38 39 41 41 40 40 40 39 37 35 33 32 32 35 35 35 35 34 31 30 27 25 24 22 24 25 25 24 25 25 24 23 20 18 18 18 17 17 17 16 14 13 13 13 14 13 15 16 14 13 13 13 12 12 11 13 15 14 10 10 11 13 13 15 17 16 16 18 18 nan nan nan nan
39 38 37 37 37 37 38 39 39 39 38 38 39 40 41 41 40 40 40 39 37 35 35 35 34 35 35 35 35 33 31 29 28 26 24 23 23 25 25 24 23 24 23 21 20 19 18 18 18 18 16 16 14 14 13 13 14 14 14 14 13 13 12 12 10 9 7 5 5 5 10 10 10 12 12 15 16 16 15 15 17 16 nan nan nan
38 38 37 36 36 39 39 40 41 42 40 41 41 41 41 41 41 40 40 39 36 36 36 35 35 36 36 35 35 33 30 29 27 26 23 23 23 23 26 26 24 24 23 22 20 20 18 18 18 18 17 16 15 14 14 14 14 15 14 14 13 12 13 11 9 9 8 6 9 4 7 9 9 9 11 13 15 16 16 17 17 16 nan nan nan
40 38 38 38 37 39 40 42 43 44 43 42 42 43 42 42 42 42 41 39 36 34 35 37 37 37 36 36 34 32 29 28 27 25 25 24 22 22 24 25 25 24 23 22 20 20 19 18 18 18 17 16 16 15 15 14 14 14 14 14 13 12 11 11 7 5 7 9 7 6 7 8 9 8 12 12 13 15 17 17 17 17 nan nan nan
39 39 40 39 38 42 41 42 44 44 44 45 44 44 43 43 43 42 41 40 35 32 35 38 39 37 37 36 34 32 30 28 26 26 25 23 21 21 22 23 23 24 24 22 21 21 20 19 19 19 18 17 16 16 15 14 14 14 14 14 13 11 11 9 7 8 10 3 4 6 7 9 9 8 11 13 14 15 15 17 17 17 nan nan nan
40 40 40 40 41 45 42 43 43 44 45 45 45 44 44 44 43 42 41 40 36 33 34 37 38 37 37 35 34 31 29 28 28 27 23 23 24 25 24 23 22 22 22 22 22 20 20 20 20 20 20 19 18 17 16 14 13 15 15 14 13 12 10 7 5 5 7 5 5 5 7 8 8 10 11 12 11 12 13 12 16 17 nan nan nan
39 39 39 40 42 45 43 43 43 43 44 46 47 47 47 46 45 43 42 42 38 35 34 36 38 37 37 36 32 30 29 28 28 27 25 25 28 26 25 25 24 22 22 21 21 20 20 19 19 20 21 20 20 18 17 15 13 13 14 13 11 11 10 5 7 11 4 5 6 7 9 13 10 9 11 10 11 15 20 24 21 19 nan nan nan
40 39 40 42 48 45 44 43 43 44 44 46 47 47 47 45 45 43 42 42 39 35 34 36 38 37 36 35 30 29 29 29 28 27 26 25 27 26 25 24 25 24 23 22 21 22 20 20 20 21 21 21 20 18 16 15 13 11 12 12 10 9 8 4 7 5 5 7 7 7 9 8 10 10 10 11 11 14 17 17 17 17 nan nan nan
41 41 41 43 48 45 44 44 44 44 46 47 47 46 45 42 42 40 39 39 38 36 35 35 37 37 35 33 30 30 31 30 26 25 23 24 25 25 24 24 24 23 23 23 23 22 22 22 22 22 22 21 20 18 17 14 12 11 11 12 10 8 5 2 4 8 4 8 8 4 4 8 11 10 10 11 11 12 13 15 16 16 nan nan nan
41 43 43 44 43 44 44 44 45 45 44 45 45 44 40 37 37 36 35 36 36 35 35 36 38 37 35 32 29 30 33 33 25 18 17 23 25 24 23 23 24 24 24 23 24 23 23 22 22 22 22 21 19 18 17 16 13 12 12 12 10 7 5 3 1 8 8 8 7 6 8 9 11 10 10 10 10 10 11 15 16 17 nan nan nan
42 43 43 40 41 46 43 44 44 44 43 43 43 41 38 36 37 36 34 34 33 33 34 36 39 37 33 30 29 32 33 30 24 23 23 24 24 24 23 23 23 24 24 24 24 24 23 22 22 23 22 22 20 20 19 17 15 14 14 14 11 8 7 2 2 10 8 9 8 9 8 8 11 9 8 10 9 10 11 14 16 17 16 nan nan
42 43 42 42 43 44 47 44 44 42 43 44 42 40 38 37 37 36 36 33 32 33 33 36 40 38 32 32 31 34 30 26 20 23 24 23 25 25 24 24 24 24 24 25 26 26 25 24 23 23 22 22 22 20 18 18 17 17 16 16 14 11 6 5 8 13 10 10 9 7 10 10 9 6 11 10 10 11 10 12 13 15 16 16 nan
44 44 44 42 43 44 43 45 44 42 42 42 40 39 39 38 37 36 36 34 32 32 32 36 40 37 32 30 29 33 30 26 22 25 25 25 26 25 24 25 25 25 25 26 27 27 26 26 25 24 24 24 23 21 19 20 20 18 17 17 15 14 7 6 10 13 12 11 12 10 11 12 7 10 11 11 12 9 10 11 12 13 15 nan nan
46 45 44 44 44 42 42 41 42 44 40 39 37 38 38 37 36 35 34 33 31 32 34 36 37 36 32 29 30 31 29 28 27 27 27 27 28 26 24 24 26 26 27 27 27 27 27 26 26 26 25 25 24 23 22 21 21 20 19 17 17 16 11 11 11 12 13 14 11 11 12 12 8 6 10 11 11 10 9 9 12 13 14 15 nan
44 44 43 43 41 39 40 37 37 34 32 31 33 34 34 34 33 33 32 31 30 33 37 39 39 36 31 30 31 30 27 27 27 28 28 28 29 28 27 25 26 27 27 28 27 27 27 27 27 27 26 25 24 24 24 23 22 21 20 19 17 18 14 10 14 15 16 12 14 12 16 18 10 6 10 11 11 10 10 10 11 11 13 15 nan
42 42 42 43 40 39 36 34 30 32 28 25 28 29 32 31 31 30 30 31 33 35 39 42 39 32 30 30 29 28 27 28 28 28 28 28 29 29 27 25 27 28 28 27 27 27 27 27 27 27 26 26 25 25 25 25 24 23 23 21 19 16 16 11 17 17 17 12 15 14 19 18 10 8 11 10 11 12 11 12 11 11 12 13 15
39 40 42 43 40 38 35 33 31 28 26 25 26 27 31 31 29 29 30 32 34 35 35 35 33 28 28 26 26 27 28 27 29 28 29 29 27 26 28 27 28 28 28 27 26 27 27 27 26 26 26 24 24 24 25 26 25 25 23 22 19 18 16 17 19 18 16 19 14 20 22 15 12 14 13 12 11 13 12 11 11 12 12 13 14
39 40 41 40 40 38 36 35 32 29 24 27 24 26 28 30 28 31 32 31 30 29 26 26 27 26 24 23 23 24 26 26 25 26 30 28 28 28 28 28 28 28 27 27 27 27 26 26 26 24 22 21 21 22 24 25 25 25 24 21 20 16 18 20 19 19 19 21 14 25 23 16 13 17 15 14 13 13 12 11 13 12 12 13 14
40 41 40 38 36 35 37 36 34 33 29 25 22 22 24 25 27 27 26 25 24 23 20 22 23 22 22 22 23 25 24 25 25 29 27 29 27 27 28 28 27 27 28 27 28 27 27 27 26 24 20 16 14 15 21 24 24 24 23 20 18 20 21 19 19 21 21 21 22 26 24 17 16 17 17 17 15 14 13 12 13 14 14 14 14
41 39 37 36 34 36 36 36 33 29 24 20 17 19 18 22 23 23 20 19 20 19 22 22 21 21 21 22 23 24 23 26 28 27 27 27 28 26 27 28 27 27 27 28 28 29 29 26 24 21 17 12 11 16 17 20 23 21 19 20 22 22 22 21 20 22 21 24 26 30 23 20 17 18 19 18 18 14 13 15 14 14 16 15 14
40 37 35 32 33 31 29 27 23 21 17 14 14 17 17 15 17 15 15 18 19 22 21 20 20 21 21 22 22 24 26 27 30 30 29 25 26 25 25 27 26 26 26 25 28 28 27 25 22 18 13 13 15 16 16 19 21 21 23 23 23 24 22 23 21 22 23 25 27 31 25 21 17 20 19 20 18 16 14 18 14 14 15 15 16
35 33 30 28 30 28 19 15 16 16 16 13 13 13 13 10 14 21 15 25 25 22 21 20 21 22 22 22 25 24 27 28 27 26 21 24 26 22 21 20 22 22 22 21 20 22 20 20 20 16 16 16 16 18 17 20 19 20 23 23 24 23 22 23 23 24 24 27 32 31 28 23 20 18 21 21 20 18 16 18 17 16 14 15 16
32 31 24 19 24 22 15 11 10 11 12 9 13 17 12 17 20 26 27 28 26 24 23 22 23 23 22 23 25 26 27 27 24 22 22 22 22 24 19 25 20 23 19 19 19 19 18 18 18 18 18 17 18 18 18 18 18 19 21 22 21 23 22 24 25 24 26 28 31 32 29 26 22 19 21 23 21 19 17 19 18 18 15 15 16
29 26 22 19 20 19 12 11 10 11 11 12 17 15 14 20 24 26 27 26 25 24 23 23 23 24 22 23 25 27 26 27 24 23 22 20 20 19 18 21 20 20 19 18 19 18 17 18 17 17 18 18 17 19 18 19 19 21 20 20 20 21 23 23 25 24 25 27 32 31 30 28 24 22 21 25 22 21 19 20 18 19 17 15 17
26 25 23 23 25 20 15 13 9 14 16 19 20 20 20 21 23 24 23 25 23 24 24 24 24 22 22 23 25 25 25 25 24 23 21 19 19 20 20 19 19 18 18 17 18 18 17 17 16 15 16 17 17 17 19 21 20 20 22 20 21 20 22 22 23 23 24 25 28 29 30 28 26 24 22 24 24 21 21 20 21 19 19 17 18
25 25 24 24 26 22 18 12 9 12 20 20 21 20 20 20 21 21 23 23 23 24 23 24 22 22 23 25 24 22 26 21 22 22 19 18 19 19 18 18 17 17 18 17 17 18 16 15 15 14 15 15 17 18 19 20 21 21 21 21 21 21 22 22 22 24 25 26 26 29 28 28 28 25 24 24 23 23 22 22 22 21 20 20 19
24 23 23 22 23 22 19 16 12 13 18 18 17 18 19 20 20 20 23 22 23 22 22 21 21 22 24 22 22 21 23 26 16 19 19 19 18 18 17 17 16 16 16 17 17 16 15 15 14 13 14 14 16 18 18 19 20 23 22 22 22 21 23 22 22 23 26 28 28 29 27 27 28 27 26 25 21 23 22 24 22 23 21 21 19
23 23 22 20 21 21 20 17 16 15 16 17 18 20 19 19 20 20 21 21 22 21 20 21 22 20 22 21 20 20 24 23 16 17 16 18 17 18 17 17 16 15 14 16 15 15 14 14 13 14 14 15 17 18 15 18 18 20 22 20 22 23 23 23 22 23 24 26 26 28 27 27 28 27 26 25 25 23 22 23 23 24 23 21 20
20 21 19 19 20 20 19 17 18 17 15 18 19 18 18 19 18 19 20 21 21 19 20 19 19 19 19 19 19 19 25 18 16 17 13 16 16 16 16 15 14 14 15 14 14 14 13 13 14 14 15 15 15 15 15 16 17 18 20 21 22 22 23 23 21 23 23 23 24 26 27 24 25 26 25 24 24 24 24 21 24 25 24 23 22
15 17 19 19 21 20 19 17 16 16 15 16 17 17 17 17 18 19 19 20 18 18 18 17 17 18 17 16 17 23 19 17 15 14 15 14 14 13 13 12 13 12 15 14 12 12 12 12 14 14 14 14 13 13 13 14 15 15 17 20 20 19 20 21 22 23 21 21 21 25 25 21 19 20 21 22 24 25 24 24 25 23 27 24 24
14 14 17 19 20 19 18 17 16 15 14 16 16 15 16 17 18 18 18 18 17 16 16 15 15 15 16 16 15 20 19 17 16 15 14 14 14 12 13 12 13 13 14 12 10 11 10 11 12 13 13 12 13 13 13 12 12 14 15 17 17 18 18 17 22 21 21 21 20 19 22 23 19 18 17 20 22 25 25 25 25 25 27 26 26
15 15 17 18 20 20 19 18 16 15 14 15 14 15 16 18 18 17 17 16 16 13 13 14 14 13 14 15 15 15 16 17 16 15 14 13 14 13 13 12 12 13 12 10 8 11 9 10 11 15 8 11 13 14 13 12 13 12 15 15 15 15 15 16 19 16 19 20 21 20 20 21 25 17 18 18 22 24 26 26 26 26 27 28 27
15 16 17 17 18 19 19 18 16 16 14 15 14 16 18 19 17 16 16 14 12 13 13 13 13 12 14 14 13 14 15 16 15 14 16 17 15 14 13 11 10 9 13 10 10 7 13 11 12 12 12 10 10 14 14 13 13 13 14 14 14 14 15 16 17 16 17 18 17 20 19 19 21 20 21 25 25 26 26 26 27 28 27 28 28
17 18 18 18 16 19 17 15 14 16 16 15 16 17 18 17 15 15 14 12 12 13 14 14 13 13 13 13 14 14 14 15 15 15 15 15 15 15 11 12 10 11 12 12 6 7 11 12 13 9 12 13 8 13 14 14 14 13 13 12 13 15 15 17 19 18 20 19 17 18 19 18 20 24 21 22 23 24 27 25 26 27 27 26 27
19 20 19 18 17 19 15 11 13 16 16 17 18 17 16 15 14 14 13 14 14 16 14 14 14 13 13 14 14 15 14 15 14 15 15 15 16 13 13 13 13 12 11 10 9 10 9 11 11 11 11 12 12 13 14 15 15 13 13 12 13 14 16 18 19 20 17 20 18 18 18 17 18 19 21 25 26 29 27 25 27 25 26 23 23
20 21 19 19 15 19 13 14 14 14 17 16 19 18 17 16 15 16 16 16 17 16 15 14 13 13 14 14 15 15 15 15 14 14 13 16 16 15 14 14 13 13 11 10 9 10 10 10 9 11 11 12 14 15 15 16 14 13 13 13 13 15 15 17 16 18 18 18 19 17 16 15 14 16 19 25 22 28 29 26 22 22 24 19 20
21 20 20 20 20 18 18 17 18 14 15 17 19 18 16 15 16 17 17 18 18 17 16 14 13 14 14 14 15 15 16 15 15 14 13 14 17 15 15 13 13 11 12 9 11 12 11 10 9 8 11 14 14 15 16 14 14 14 13 14 13 14 14 15 15 17 18 20 19 18 16 16 15 14 20 22 21 25 27 27 26 23 21 19 18
21 20 20 21 20 16 21 19 22 21 19 16 15 15 15 16 17 17 18 18 18 18 16 15 14 15 15 16 15 15 15 16 15 15 14 14 15 16 15 15 13 13 13 13 14 14 14 13 11 9 9 12 15 16 16 14 13 15 15 13 14 14 14 14 15 15 18 18 21 18 19 16 15 19 21 23 16 20 21 21 27 23 21 24 23
20 20 19 22 18 20 20 22 21 19 17 15 15 15 17 17 17 18 18 19 18 16 16 15 15 15 15 16 15 15 15 15 15 14 15 15 15 15 16 16 15 16 15 15 15 16 16 15 13 12 11 12 14 14 16 15 14 13 14 15 14 16 16 16 15 15 17 18 18 17 17 16 18 20 21 22 23 19 20 21 23 25 22 24 27
20 18 20 23 22 24 27 25 23 21 18 15 16 17 18 18 16 18 18 18 18 16 15 15 14 14 14 14 14 14 14 15 15 15 15 15 15 16 16 16 16 15 16 16 16 16 16 17 15 13 14 15 15 16 16 15 14 17 15 14 14 14 19 17 17 15 16 16 18 17 18 19 18 21 22 20 22 23 24 25 24 22 23 24 25
18 18 19 22 24 21 30 31 30 22 17 17 17 19 19 18 19 20 20 17 15 15 15 14 13 13 13 13 14 13 14 15 16 nan nan 17 16 17 16 16 16 15 16 17 17 17 18 17 18 17 16 16 17 19 18 18 16 17 17 16 17 18 17 20 18 16 17 18 17 18 16 17 20 21 21 20 23 24 23 24 25 25 24 23 20
17 16 20 16 14 16 20 18 15 14 17 20 21 20 20 21 22 23 22 20 16 13 12 13 13 nan nan 13 14 13 14 16 16 16 nan 18 17 17 16 16 16 16 17 18 19 19 18 19 19 18 17 16 18 20 19 18 18 17 18 17 17 18 22 19 20 16 17 19 21 18 21 15 17 22 19 24 24 23 23 26 24 24 24 23 20
13 13 15 14 13 12 16 21 29 23 22 23 21 20 22 24 24 21 20 17 16 13 13 13 nan nan nan 13 14 14 15 16 15 17 nan nan nan 17 15 nan 16 16 nan 18 19 19 19 19 20 19 18 18 16 18 20 19 19 20 20 22 21 20 20 21 20 21 19 24 19 24 23 20 17 21 22 24 26 27 26 26 26 25 25 24 22
10 12 16 18 14 11 12 26 28 26 23 22 20 21 24 24 23 21 20 18 17 16 16 16 15 nan 13 13 15 16 16 17 17 nan nan nan nan nan nan nan nan nan nan nan 19 19 nan 20 19 20 20 20 18 17 18 20 19 20 21 20 21 20 19 17 19 25 21 20 25 23 22 22 25 26 24 25 24 26 26 26 26 25 26 25 22
9 11 15 16 14 15 17 22 24 25 24 21 20 21 22 22 21 21 22 20 19 20 18 17 16 14 15 nan nan 17 nan nan nan nan nan nan nan nan nan nan nan nan nan nan nan nan nan 21 21 21 21 22 21 21 21 19 19 21 20 19 20 19 19 18 19 17 23 20 23 23 23 24 26 27 26 26 26 26 26 25 26 26 25 23 23
9 12 15 17 19 22 20 18 19 22 22 26 25 23 20 21 22 21 22 23 22 21 19 18 16 16 16 nan nan nan nan nan nan nan nan nan nan nan nan nan nan nan nan nan nan nan nan 21 21 22 23 23 23 23 23 23 22 22 21 19 18 19 19 19 19 19 20 21 17 20 23 23 25 25 nan 24 26 26 27 27 27 28 27 25 25
19 19 15 21 33 30 17 16 19 20 22 26 28 26 22 21 22 23 24 23 22 21 20 19 18 17 18 16 nan nan nan nan nan nan nan nan nan nan nan nan nan nan nan nan nan nan nan nan 23 22 22 23 23 24 24 25 25 24 22 21 20 20 19 20 20 20 19 22 17 21 22 22 24 26 nan 24 nan nan nan nan nan nan 29 28 29
27 25 25 31 30 28 26 16 19 20 21 23 25 25 23 20 21 23 23 22 22 21 21 20 19 20 nan nan nan nan nan nan nan nan nan nan nan nan nan nan nan nan nan nan nan nan nan nan nan nan nan nan nan 24 25 25 25 26 24 23 22 22 22 21 22 21 20 21 22 23 23 24 25 26 nan nan nan nan nan nan nan nan nan nan nan
Wind_Direction
294 289 289 288 289 290 292 292 292 293 295 298 294 294 296 301 305 307 307 305 305 304 302 300 301 303 302 301 300 298 298 300 303 308 315 318 318 318 317 318 318 316 314 312 307 303 300 295 294 294 289 285 281 278 273 271 265 261 259 266 282 288 292 290 285 281 274 266 262 264 263 261 254 248 237 229 222 212 205 200 212 nan nan nan nan
290 287 286 289 288 289 291 291 290 291 292 292 294 296 297 299 302 306 305 303 302 301 298 298 299 300 298 300 298 298 298 300 303 307 315 318 318 317 317 317 317 316 313 310 307 303 301 297 297 294 289 284 281 277 275 271 264 264 266 268 277 290 295 292 282 284 282 273 265 262 262 260 257 251 240 230 221 nan nan 208 207 nan nan nan nan
287 287 287 288 287 287 288 289 291 290 290 291 294 296 296 300 303 305 306 304 303 299 298 298 298 296 298 298 298 297 298 299 302 306 311 314 317 316 317 317 316 315 311 309 308 303 301 299 294 293 290 284 279 278 275 275 266 261 268 267 265 282 292 295 299 290 287 290 285 275 268 263 nan nan nan nan 228 225 220 218 219 nan nan nan nan
288 286 286 285 286 285 286 288 289 290 290 291 294 296 297 299 303 305 306 305 302 298 297 296 297 298 296 297 297 297 298 300 302 306 310 314 317 317 315 314 313 309 308 306 307 305 301 299 296 293 288 281 278 278 276 273 266 261 267 267 262 274 291 294 285 292 306 309 316 314 274 276 268 255 247 239 233 226 225 228 233 nan nan nan nan
286 284 284 285 286 284 285 286 288 290 290 292 294 296 298 298 302 303 304 302 300 298 298 299 299 295 294 295 296 297 298 300 302 306 311 315 313 312 310 310 311 308 309 310 308 304 299 296 295 293 289 282 278 276 272 275 270 269 271 273 269 277 284 290 292 311 317 9 1 61 271 268 266 264 254 242 232 228 229 234 232 232 nan nan nan
283 282 283 284 284 284 284 285 287 289 290 293 295 295 298 298 301 303 303 302 299 297 296 295 295 293 293 295 295 296 299 301 304 308 308 304 306 310 312 313 312 312 311 312 307 304 302 299 297 294 289 284 281 276 274 274 274 274 274 272 274 282 289 291 307 331 359 351 50 298 284 281 277 269 255 249 235 228 226 226 225 230 nan nan nan
282 281 282 283 281 283 283 285 286 289 291 294 296 297 298 301 303 304 304 303 298 295 294 294 293 292 293 295 295 297 299 301 303 301 299 302 309 313 314 314 314 312 311 309 308 302 298 297 295 294 291 288 282 276 271 275 277 274 270 273 275 281 284 285 318 8 358 36 274 266 257 262 272 271 267 256 247 233 226 228 228 230 nan nan nan
280 281 284 283 283 283 283 285 287 289 293 296 297 298 300 302 303 303 303 303 297 294 295 292 291 291 293 294 295 296 297 299 301 299 300 304 303 299 301 306 308 312 311 307 302 300 299 296 295 294 293 287 283 275 270 270 272 276 271 271 275 278 283 294 311 24 53 12 271 248 258 262 267 268 267 259 251 240 233 225 227 223 nan nan nan
281 283 284 283 283 287 284 286 289 291 294 296 297 299 302 302 301 301 302 301 297 293 292 291 290 289 288 290 292 294 297 299 299 298 294 295 295 297 305 307 307 307 304 302 299 297 299 297 298 296 292 289 280 274 268 266 274 274 264 266 272 277 284 300 10 35 28 289 291 284 274 284 278 271 268 260 253 239 230 246 260 240 nan nan nan
281 281 282 282 284 285 286 288 291 293 295 297 299 301 302 301 300 301 301 303 301 296 291 288 285 283 282 283 285 290 294 295 295 294 293 291 298 302 305 305 304 302 302 293 298 298 296 297 296 296 291 286 279 271 263 256 261 262 261 262 269 274 279 316 18 35 299 324 276 238 211 168 269 265 268 267 253 241 236 225 219 223 nan nan nan
281 280 281 282 286 284 287 290 292 294 295 298 300 301 300 299 298 298 298 300 300 295 288 284 281 279 279 282 288 290 291 293 292 292 293 293 297 299 298 296 295 294 292 287 290 293 293 290 291 287 282 280 271 267 259 252 250 256 262 269 270 270 281 4 40 286 281 277 281 277 246 196 247 260 275 267 259 252 243 239 238 239 nan nan nan
281 280 279 280 283 286 290 293 295 297 300 301 301 301 300 300 300 298 297 294 294 291 286 282 279 277 278 282 287 287 289 286 281 286 287 293 294 295 295 293 289 287 288 288 287 287 287 287 286 283 282 280 276 267 260 252 246 250 259 265 271 278 280 20 63 274 291 262 259 264 290 265 253 262 275 270 265 255 247 243 241 241 nan nan nan
279 278 277 285 289 291 295 297 299 300 301 302 302 301 299 299 299 298 295 291 289 288 285 282 279 276 275 278 280 280 279 278 277 278 290 296 294 292 292 289 286 285 286 286 286 286 287 287 284 283 280 277 272 266 260 251 237 237 246 253 256 267 291 115 245 284 270 272 287 282 264 248 245 254 261 264 264 258 246 243 243 242 nan nan nan
280 283 288 291 296 300 300 301 301 300 301 302 300 298 297 295 296 294 292 289 288 285 282 280 276 269 269 273 273 272 270 274 288 295 296 296 294 292 291 288 286 285 285 284 282 283 282 284 283 280 277 274 265 253 247 243 235 232 235 239 245 261 290 358 132 272 270 276 261 260 259 262 255 251 254 253 258 262 255 244 239 238 236 nan nan
286 287 289 298 300 304 304 302 300 299 299 299 296 293 291 291 290 290 287 285 285 283 284 280 272 264 263 268 269 269 269 276 280 286 287 295 295 295 294 292 289 287 285 284 283 282 280 277 272 272 268 266 262 254 247 238 229 225 228 230 233 249 298 277 273 271 271 269 280 290 268 263 243 213 246 247 249 252 252 250 243 236 234 231 nan
290 291 298 299 302 303 303 301 298 295 295 292 291 288 286 287 288 285 282 281 280 283 282 277 272 264 263 266 268 275 282 285 290 287 290 292 292 294 294 293 291 288 287 285 283 280 279 275 271 269 265 261 258 255 243 239 233 228 227 229 236 249 225 203 259 267 270 273 267 264 267 261 241 247 236 245 250 244 247 246 241 240 237 nan nan
293 295 296 300 300 300 298 298 297 297 294 290 287 285 285 285 281 279 279 278 280 280 276 272 269 261 257 262 266 271 275 274 275 284 287 290 290 292 295 294 293 291 287 283 282 281 278 274 271 267 263 259 256 252 245 237 238 234 228 225 237 254 227 206 254 263 260 259 267 268 272 279 259 230 259 241 236 240 238 239 243 238 238 231 nan
296 297 298 296 296 299 301 299 299 299 295 291 288 287 284 282 280 279 279 279 279 273 267 262 257 254 256 263 269 272 272 271 273 279 284 284 289 295 296 298 294 291 289 286 284 281 278 274 269 264 261 258 253 247 243 235 233 234 233 230 235 251 244 218 252 254 258 267 264 265 264 259 245 248 266 257 247 239 234 240 240 238 232 235 nan
298 304 305 298 301 303 297 299 306 299 295 291 287 282 283 282 280 280 280 277 275 271 267 260 258 259 264 268 271 273 273 275 276 279 279 285 290 294 295 296 293 291 290 287 285 282 279 276 272 266 261 256 249 244 240 238 232 229 234 238 244 253 252 244 257 256 260 263 259 263 263 251 242 270 265 256 248 246 238 229 233 236 236 234 234
297 297 296 297 302 302 302 300 298 293 289 295 290 282 286 285 280 279 282 276 275 273 270 262 259 266 267 269 272 273 276 276 279 282 284 284 290 293 294 294 292 291 290 287 284 282 280 277 273 268 263 259 255 249 243 239 236 231 230 238 250 263 258 254 251 257 257 247 245 259 261 252 258 276 271 269 262 249 248 242 237 235 232 238 238
294 296 297 300 302 302 296 292 293 288 289 287 283 284 283 282 277 280 276 277 276 277 273 266 262 265 269 267 269 271 273 274 283 286 290 289 283 289 295 294 293 292 291 288 283 279 276 274 272 268 265 264 262 260 252 247 242 238 234 236 255 261 256 256 259 256 255 263 257 259 260 253 265 271 274 273 266 259 254 248 243 238 235 234 234
299 297 300 300 296 293 293 290 287 285 283 282 275 269 264 268 276 272 272 269 273 272 268 266 265 263 266 268 264 267 273 280 286 290 292 290 293 294 296 295 293 292 289 287 284 280 277 274 270 266 260 259 267 264 264 258 253 246 246 243 250 255 258 261 259 261 257 258 256 263 262 253 259 268 270 270 266 263 265 256 246 242 237 231 231
299 300 300 299 293 287 284 282 278 274 276 279 269 265 272 265 259 253 243 258 265 265 260 264 264 266 269 267 270 275 282 287 291 293 289 291 292 297 294 294 292 290 288 286 285 281 274 270 268 267 264 261 258 249 247 254 257 261 260 257 252 255 262 263 262 258 264 258 256 267 266 259 261 265 266 268 267 266 262 262 254 250 243 240 236
302 301 298 292 289 282 280 279 276 275 268 268 269 257 263 259 249 233 250 262 267 259 262 265 266 269 271 274 276 280 283 287 287 291 289 292 290 290 291 292 291 290 289 289 287 284 283 279 277 277 276 271 254 252 248 249 249 253 256 255 256 256 262 266 264 263 260 265 264 271 270 264 257 263 263 265 266 265 260 268 261 257 251 245 241
297 296 294 288 268 266 270 275 277 272 256 238 250 258 253 251 260 273 262 267 268 268 268 270 268 271 271 274 275 279 285 287 288 287 293 292 290 288 292 289 285 288 301 287 289 286 287 278 275 278 264 256 252 245 237 243 242 246 250 252 256 261 261 262 261 262 262 262 265 274 274 265 259 251 264 264 263 263 262 270 264 261 251 248 246
296 293 295 292 284 275 276 276 281 262 233 218 234 235 240 258 264 266 268 267 268 266 266 264 265 267 266 269 275 282 287 282 286 286 286 285 287 296 304 298 303 294 295 289 285 282 276 269 267 266 263 260 252 248 245 238 243 246 248 254 255 260 259 262 261 260 262 263 268 275 274 270 263 251 261 265 262 261 264 263 262 262 258 251 251
292 291 297 301 293 291 299 309 287 246 251 244 242 252 255 262 264 264 267 267 266 265 263 260 261 264 267 271 279 287 287 284 286 283 283 285 287 284 284 279 282 285 286 283 279 276 272 269 266 265 263 261 262 258 252 248 232 241 246 251 252 254 253 255 260 262 262 262 267 274 272 270 266 257 260 266 265 261 260 263 261 262 260 257 258
297 296 289 289 292 295 311 321 291 259 256 250 257 267 265 264 262 262 265 265 263 262 261 260 262 267 270 278 283 287 288 283 282 285 286 291 293 290 286 285 285 285 283 276 279 274 271 266 264 262 267 266 264 261 252 247 246 238 240 242 249 248 252 252 252 255 259 261 265 270 271 268 266 259 250 261 266 265 264 263 262 260 260 257 261
300 297 291 293 295 294 297 302 293 271 260 252 254 261 258 258 259 258 260 263 260 259 260 263 266 269 275 281 285 283 278 278 281 282 286 289 289 290 291 290 286 288 284 279 274 273 270 268 268 267 266 263 257 253 249 244 243 242 240 241 242 248 251 250 250 253 255 258 260 269 273 271 266 260 253 253 261 266 265 264 263 262 257 257 256
299 296 296 297 295 291 287 283 281 274 269 263 256 254 256 257 258 257 258 262 261 261 263 265 265 272 277 279 281 281 271 277 286 288 290 289 290 291 292 289 290 286 283 281 277 276 273 267 266 264 259 256 254 249 241 242 239 241 239 239 246 243 250 249 251 250 250 250 256 265 274 271 263 260 254 249 259 262 263 267 263 265 261 258 256
297 296 298 297 290 286 280 278 273 263 263 263 254 255 258 257 257 259 259 261 261 263 265 264 267 271 273 276 277 279 275 273 279 286 287 295 294 292 291 288 289 283 280 280 275 267 267 266 262 258 252 245 244 246 242 241 236 245 244 242 244 244 246 249 249 249 252 255 256 261 269 273 262 256 255 252 248 251 256 269 267 269 267 264 261
304 299 296 295 290 287 282 277 271 265 261 255 251 252 253 256 260 257 259 261 263 263 264 266 269 269 270 276 273 266 270 284 279 283 293 293 296 296 293 291 290 288 283 278 280 278 273 271 267 264 253 250 247 244 241 237 235 235 246 243 244 246 248 249 249 254 253 257 259 259 262 269 261 250 253 254 256 252 242 258 267 268 269 268 265
307 306 299 298 296 286 279 275 273 274 270 261 252 250 250 255 258 255 253 257 261 260 263 267 269 272 273 273 274 273 278 287 294 293 289 292 289 293 295 294 286 284 284 285 288 285 273 267 274 260 267 261 251 247 242 244 239 235 236 249 247 249 245 250 249 248 251 252 256 259 264 266 265 251 255 258 259 256 253 252 259 259 272 270 266
316 310 309 305 293 280 272 267 267 275 270 258 252 251 251 253 254 254 251 256 256 257 262 266 268 268 274 274 273 280 297 296 293 290 286 287 289 290 291 288 283 283 282 280 293 287 270 259 245 264 263 265 266 253 248 249 246 243 244 240 245 242 246 250 253 251 251 253 253 252 260 270 264 259 263 267 262 263 255 255 258 255 254 260 262
311 315 322 311 300 286 272 260 265 268 269 261 256 253 254 251 253 252 252 252 256 263 265 262 264 270 271 276 276 277 284 287 286 284 283 283 281 284 289 280 280 291 288 287 267 262 277 277 276 255 243 260 262 262 254 250 246 247 248 246 245 255 258 253 260 258 260 256 251 252 250 253 265 266 263 264 270 266 265 258 257 253 257 256 257
312 313 317 313 304 290 274 264 269 272 268 265 257 252 252 251 249 249 250 254 256 257 260 262 268 270 272 273 278 278 281 283 282 284 277 269 271 272 273 279 283 292 287 286 286 316 285 274 270 286 270 240 251 267 266 261 258 251 250 250 254 254 260 267 267 267 264 260 262 262 257 256 254 253 252 253 262 270 270 262 253 251 251 253 254
305 309 314 314 311 281 268 269 272 270 266 265 257 249 246 248 247 249 252 253 251 255 256 261 263 265 268 273 277 279 282 283 285 282 280 281 278 277 276 274 275 267 265 274 282 265 265 276 268 267 281 276 272 268 268 267 264 265 261 260 261 261 262 262 267 270 271 269 260 264 266 263 260 250 249 252 266 263 269 261 259 252 248 250 254
303 304 308 311 316 291 264 264 269 260 262 258 252 243 241 242 244 246 248 248 246 245 249 255 261 266 271 271 275 277 280 282 285 285 283 284 282 284 280 280 274 274 272 272 275 267 271 272 282 282 279 276 268 263 269 268 271 273 271 268 262 264 265 265 264 260 266 277 280 269 268 267 262 265 255 249 244 253 260 263 253 256 255 255 261
298 299 298 299 305 283 279 265 249 249 246 248 248 241 236 236 237 240 244 242 242 242 246 254 260 265 268 275 280 281 281 279 279 282 281 283 278 275 281 277 279 278 276 280 281 276 274 272 275 277 272 268 261 261 260 265 269 268 274 279 277 273 266 266 267 272 269 265 263 269 275 278 279 272 264 264 261 260 259 272 274 264 267 266 265
295 292 292 292 287 290 274 277 258 235 247 248 244 237 234 233 238 241 242 242 244 246 247 251 258 263 269 271 273 272 272 276 276 275 277 278 291 296 284 283 281 285 289 290 281 280 279 281 279 275 272 267 265 263 264 267 273 275 275 270 266 267 270 270 269 270 269 268 269 269 270 273 276 276 269 254 259 269 271 271 268 266 264 272 271
286 286 287 282 286 291 276 268 241 228 245 244 236 236 234 235 236 241 244 245 247 249 250 253 258 263 266 270 271 271 272 274 279 281 279 278 274 278 283 283 283 279 277 275 280 282 283 282 278 268 265 268 265 259 263 265 273 279 278 278 277 275 274 273 278 277 277 270 265 261 267 270 269 267 251 269 264 264 269 270 270 272 273 268 268
276 273 275 277 278 275 259 242 237 238 235 241 239 234 235 236 242 246 248 248 250 251 254 257 257 260 262 263 265 269 275 278 278 276 275 276 277 276 274 272 273 272 272 277 281 283 286 286 283 275 265 261 260 259 260 263 273 271 276 281 280 278 274 277 275 279 276 280 279 282 271 269 268 261 274 279 290 287 279 277 273 275 276 274 272
263 266 263 265 265 238 218 223 225 220 231 238 238 240 240 246 248 251 251 248 245 250 256 256 259 263 262 265 265 268 275 279 279 277 274 271 272 273 271 270 269 271 274 275 276 278 277 281 285 277 270 264 260 262 260 263 263 270 266 265 277 278 283 275 276 270 273 273 275 281 284 284 280 272 267 268 267 272 276 275 276 280 280 276 268
252 255 261 255 248 247 216 212 209 211 230 235 236 245 247 250 254 254 248 249 260 262 264 265 262 268 271 267 270 271 274 278 279 nan nan 269 266 269 272 269 266 264 266 269 271 270 271 272 273 275 270 266 269 266 261 263 263 270 280 275 273 276 274 268 262 269 275 271 273 267 269 270 273 280 269 266 267 268 270 272 277 276 278 280 273
248 256 257 256 253 245 242 234 244 218 240 240 240 249 253 261 265 260 254 257 268 272 270 265 259 nan nan 272 271 271 276 275 274 269 nan 266 261 260 262 268 268 266 265 265 265 263 265 268 270 268 270 266 270 270 268 269 268 263 263 274 279 282 269 276 281 267 268 279 275 279 272 265 265 268 284 271 267 266 268 271 269 271 271 277 278
249 260 267 265 257 247 224 227 228 223 237 248 251 259 263 275 280 275 268 266 269 269 264 260 nan nan nan 266 268 267 270 271 272 270 nan nan nan 260 261 nan 271 270 nan 267 266 267 263 261 263 266 269 272 269 277 276 274 269 268 262 263 269 264 271 278 277 275 263 259 258 249 256 260 262 253 249 267 266 264 267 270 270 273 276 277 275
253 262 274 269 266 254 228 234 246 244 250 264 267 264 271 276 281 276 269 266 264 257 250 252 251 nan 257 260 263 264 270 275 270 nan nan nan nan nan nan nan nan nan nan nan 266 264 nan 261 262 264 266 267 270 274 278 275 278 271 268 262 261 261 258 259 263 272 267 266 258 262 256 249 249 255 254 251 259 265 266 269 272 272 272 272 271
243 261 271 273 279 260 248 250 248 246 254 264 263 268 279 278 276 272 268 266 262 257 256 254 252 254 256 nan nan 271 nan nan nan nan nan nan nan nan nan nan nan nan nan nan nan nan nan 268 265 266 267 267 266 267 269 272 269 273 272 269 269 262 261 258 263 252 264 274 269 260 257 255 257 257 256 258 261 265 266 266 270 271 271 273 271
274 274 274 270 269 257 254 252 245 243 253 263 262 268 280 282 272 269 269 264 262 259 256 259 259 259 263 nan nan nan nan nan nan nan nan nan nan nan nan nan nan nan nan nan nan nan nan 268 270 270 269 270 270 269 270 269 270 271 276 271 266 261 261 259 255 258 265 265 266 265 263 265 262 260 nan 260 258 261 263 263 262 267 268 264 266
277 285 274 260 238 218 233 240 243 241 253 260 261 264 273 278 270 268 270 267 263 260 260 263 266 268 268 270 nan nan nan nan nan nan nan nan nan nan nan nan nan nan nan nan nan nan nan nan 267 268 269 272 272 269 268 270 271 269 264 267 269 271 270 262 257 257 261 265 267 273 268 268 264 263 nan 264 nan nan nan nan nan nan 264 267 264
259 259 254 257 244 212 200 216 242 245 254 262 265 262 261 270 270 271 271 270 269 266 266 268 268 270 nan nan nan nan nan nan nan nan nan nan nan nan nan nan nan nan nan nan nan nan nan nan nan nan nan nan nan 276 275 272 273 272 271 268 263 256 251 249 252 255 250 255 257 262 265 264 266 267 nan nan nan nan nan nan nan nan nan nan nan